Printer-friendly version

IAU Minor Planet Center

Minor Planet Center

(3) Juno

Orbital Elements

The following orbital elements are taken from MPC 24084:
    (3) Juno
Epoch 2007 Apr. 10.0 TT = JDT 2454200.5  (M-c)          Bowell
M 121.22421              (2000.0)            P               Q
n   0.22617969     Peri.  247.84192     +0.52642729     -0.84934750
a   2.6678842      Node   170.12007     +0.83907444     +0.51168273
e   0.2580231      Incl.   12.97036     +0.13721657     +0.12957474
P   4.36           H    5.33          G   0.32
From 4741 observations at 65 oppositions, 1839-1993, mean residual 0".56.
An explanation of the orbital elements is available.

These orbital elements are also available in forms suitable for loading into a number of popular planetarium-type software programs.


Ephemeris

The following ephemeris is at intervals of five days. A daily ephemeris covering the same time interval is also available.

Personalized ephemerides for this object (and others) can be generated using the MPES.

Date    TT    R. A. (2000) Decl.     Delta      r     Elong.  Phase     V
 
2007 01 21    13 42.71   -06 14.1    2.734    2.976    94.4    19.3    10.7
2007 01 26    13 45.48   -06 09.4    2.673    2.987    98.8    19.0    10.6
2007 01 31    13 47.79   -06 01.1    2.612    2.997   103.4    18.6    10.6
2007 02 05    13 49.59   -05 49.2    2.552    3.008   108.1    18.2    10.5
2007 02 10    13 50.88   -05 33.6    2.494    3.018   112.9    17.5    10.4
2007 02 15    13 51.61   -05 14.2    2.438    3.029   117.9    16.8    10.4
2007 02 20    13 51.78   -04 51.1    2.386    3.039   122.9    15.8    10.3
2007 02 25    13 51.38   -04 24.4    2.336    3.049   128.2    14.8    10.3
2007 03 02    13 50.41   -03 54.3    2.291    3.059   133.5    13.6    10.2
2007 03 07    13 48.89   -03 21.1    2.250    3.068   138.9    12.3    10.1
2007 03 12    13 46.84   -02 45.1    2.215    3.078   144.4    10.8    10.0
2007 03 17    13 44.28   -02 06.9    2.185    3.087   150.0     9.3    10.0
2007 03 22    13 41.29   -01 27.1    2.162    3.096   155.5     7.7     9.9
2007 03 27    13 37.92   -00 46.3    2.146    3.105   160.8     6.1     9.8
2007 04 01    13 34.26   -00 05.3    2.136    3.114   165.7     4.5     9.8
2007 04 06    13 30.41   +00 35.0    2.134    3.123   169.4     3.4     9.7
2007 04 11    13 26.45   +01 14.0    2.139    3.132   170.4     3.1     9.7
2007 04 16    13 22.48   +01 50.8    2.152    3.140   167.9     3.8     9.8
2007 04 21    13 18.61   +02 24.7    2.172    3.149   163.5     5.2     9.8
2007 04 26    13 14.93   +02 55.1    2.199    3.157   158.5     6.7     9.9
2007 05 01    13 11.53   +03 21.6    2.233    3.165   153.2     8.3    10.0
2007 05 06    13 08.47   +03 44.0    2.273    3.173   147.8     9.7    10.1
2007 05 11    13 05.80   +04 02.0    2.319    3.180   142.5    11.1    10.2
2007 05 16    13 03.57   +04 15.5    2.370    3.188   137.3    12.4    10.3
2007 05 21    13 01.82   +04 24.7    2.426    3.195   132.2    13.6    10.4
2007 05 26    13 00.55   +04 29.5    2.487    3.202   127.2    14.6    10.5
2007 05 31    12 59.77   +04 30.3    2.551    3.209   122.3    15.5    10.6
2007 06 05    12 59.49   +04 27.3    2.618    3.216   117.6    16.2    10.7
2007 06 10    12 59.68   +04 20.7    2.688    3.223   113.0    16.9    10.7
2007 06 15    13 00.33   +04 10.8    2.760    3.230   108.5    17.4    10.8
2007 06 20    13 01.43   +03 57.9    2.834    3.236   104.2    17.7    10.9
2007 06 25    13 02.96   +03 42.2    2.909    3.242    99.9    18.0    11.0
2007 06 30    13 04.88   +03 24.0    2.985    3.248    95.8    18.1    11.0

Back to Bright Minor Planets

Astronomical Headlines Index

MPC


Valid HTML 4.01!